Content
SEND FEEDBACK

Daily
Averages
Monthly
Summary
United States of America

MASON CITY, NEBRASKA


Home > North America > United States > Nebraska
Elevation: 2250 feet     Latitude: 41 14N     Longitude: 099 19W

WEATHER
 
SELECT A DAY
Number of Records: 180,786;   Date Range: 1/1/95 - 12/16/14
 
SHARE

PRINT THIS DATA

[ ← Previous Day ]
WEATHER ALMANAC - JANUARY 31, 2013
[ Next Day → ]
[ °C ]   °F
Weather ElementAverageHighLow
Temperature10.5 °F19.4 °F (1:06 am)3 °F (8:53 pm)
Dewpoint2 °F12.2 °F (1:06 am)-4 °F (2:53 pm)
Humidity69.5 %85 % (7:13 am)49 % (3:53 pm)
Barometer30.25 in30.43 in (8:53 pm)29.88 in (1:06 am)
Wind Speed11.8 mph24.2 mph (9:53 am)
Wind Gust38 mph (9:53 am)
Weather ElementAverage
Visibility9.8 mi
Wind DirectionWSW (252.7 °)

Weather ElementTotal
Precipitation---
Heating Degree Days53.8 (Base 65)
Averaged from 26 records on January 31, 2013
WEATHER CONDITIONS BREAKOUT
WIND DIRECTION BREAKOUT
WEATHER BY HOUR - JANUARY 31, 2013
[ °C ]   °F
Local TimeTemperatureDewpointHumidityBarometerVisibilityWind DirectionWind SpeedGust SpeedPrecipitationEventsConditions
1:06 AM19.4 °F12.2 °F74 %29.88 in10.0 miNNE (20°)6.9 mphOvercast
1:53 AM16.0 °F10.9 °F81 %29.99 in10.0 miNorth (10°)6.9 mphOvercast
2:53 AM14.0 °F10.0 °F84 %30.03 in10.0 miNorth (360°)5.8 mphOvercast
3:53 AM15.1 °F10.0 °F80 %30.04 in10.0 miNNW (340°)6.9 mphOvercast
4:53 AM15.1 °F10.9 °F84 %30.05 in10.0 miNNW (330°)6.9 mphOvercast
5:53 AM14.0 °F10.0 °F84 %30.08 in10.0 miNorth (360°)8.1 mphOvercast
6:53 AM12.9 °F8.1 °F81 %30.12 in10.0 miNorth (360°)11.5 mphOvercast
7:13 AM12.2 °F8.6 °F85 %30.03 in10.0 miNorth (360°)15.0 mphOvercast
7:53 AM10.9 °F6.1 °F81 %30.19 in10.0 miNorth (350°)13.8 mphOvercast
8:34 AM6.8 °F1.4 °F79 %30.11 in5.0 miNNE (20°)12.7 mphHaze
8:53 AM8.1 °F0.0 °F70 %30.27 in10.0 miNNW (340°)20.7 mph27.6 mphOvercast
9:53 AM9.0 °F0.0 °F67 %30.30 in10.0 miNNW (330°)24.2 mph38.0 mphPartly Cloudy
10:53 AM10.0 °F-0.9 °F61 %30.35 in10.0 miNNW (330°)21.9 mph32.2 mphClear
11:53 AM10.9 °F-2.0 °F56 %30.36 in10.0 miNorth (350°)23.0 mph31.1 mphClear
12:53 PM12.0 °F-2.0 °F53 %30.36 in10.0 miNNW (330°)23.0 mph29.9 mphClear
1:53 PM10.9 °F-2.9 °F54 %30.37 in10.0 miNW (320°)21.9 mph29.9 mphClear
2:53 PM10.9 °F-4.0 °F51 %30.38 in10.0 miNNW (330°)20.7 mph29.9 mphClear
3:53 PM12.0 °F-4.0 °F49 %30.38 in10.0 miNW (310°)18.4 mphScattered Clouds
4:53 PM10.0 °F-4.0 °F53 %30.39 in10.0 miNNW (340°)12.7 mphPartly Cloudy
5:53 PM8.1 °F-4.0 °F58 %30.39 in10.0 miNNW (330°)8.1 mphPartly Cloudy
6:53 PM3.9 °F-4.0 °F70 %30.40 in10.0 miNNW (340°)4.6 mphClear
7:53 PM3.9 °F-4.0 °F70 %30.41 in10.0 miCalmClear
8:53 PM3.0 °F-2.9 °F76 %30.43 in10.0 miNE (40°)3.5 mphMostly Cloudy
9:53 PM6.1 °F-0.9 °F73 %30.43 in10.0 miCalmOvercast
10:53 PM9.0 °F0.0 °F67 %30.41 in10.0 miSouth (180°)5.8 mphOvercast
11:53 PM8.6 °F-0.4 °F67 %30.24 in10.0 miSouth (190°)4.6 mphOvercast
Hourly data recorded from KBBW, located miles away from Mason City, Nebraska







STORIES FROM OUR PARTNERS